Regional Weather Roundup
Issued by NWS Charleston, WV

Home | Current Version | Previous Version | Graphics & Text | Print | Product List | Glossary On
Versions: 1 2 3 4 5 6 7 8 9 10 11 12 13 14 15 16 17 18 19 20 21 22 23 24 25 26 27 28 29 30 31 32 33 34 35 36 37 38 39 40 41 42 43 44 45 46 47 48 49 50
000
ASUS41 KRLX 192210
RWRRLX
West Virginia Regional Weather Roundup
National Weather Service Charleston WV
600 PM EDT FRI SEP 19 2014

Note: "fair" indicates few or no clouds below 12,000 feet with no
significant weather and/or obstructions to visibility.

WVZ003-192300-
Northern Panhandle of West Virginia

CITY           SKY/WX    TMP DP  RH WIND       PRES   REMARKS
WHEELING       MOSUNNY   71  57  61 E3        30.14S
$$

WVZ009-192300-
Northwest West Virginia

CITY           SKY/WX    TMP DP  RH WIND       PRES   REMARKS
PARKERSBURG    SUNNY     76  58  53 S5        30.14S
$$

WVZ006-192300-
Western West Virginia

CITY           SKY/WX    TMP DP  RH WIND       PRES   REMARKS
HUNTINGTON     SUNNY     75  61  61 SE3       30.09S
$$

WVZ015-192300-
West Central West Virginia

CITY           SKY/WX    TMP DP  RH WIND       PRES   REMARKS
CHARLESTON     PTSUNNY   75  62  64 SE10G23   30.11R
$$

WVZ031-192300-
North Central West Virginia

CITY           SKY/WX    TMP DP  RH WIND       PRES   REMARKS
CLARKSBURG     PTSUNNY   72  58  61 SE7       30.15R
MORGANTOWN     PTSUNNY   73  57  57 SE13      30.16S
$$

WVZ035-042-045-192300-
South Central West Virginia

CITY           SKY/WX    TMP DP  RH WIND       PRES   REMARKS
BECKLEY        MOSUNNY   66  57  72 SE14G21   30.21R
BLUEFIELD      PTSUNNY   66  56  70 VRB6G20   30.22S
LEWISBURG      CLOUDY    63  55  77 E7        30.26R
$$

WVZ047-192300-
Northern Mountains of West Virginia

CITY           SKY/WX    TMP DP  RH WIND       PRES   REMARKS
ELKINS         SUNNY     67  55  65 SE9G16    30.22R
$$

WVZ052-192300-
Eastern Panhandle of West Virginia

CITY           SKY/WX    TMP DP  RH WIND       PRES   REMARKS
MARTINSBURG    CLOUDY    71  52  50 SE7       30.25R
PETERSBURG     CLOUDY    68  53  58 CALM      30.25R
$$



USA.gov is the U.S. government's official web portal to all federal, state and local government web resources and services.